Voltar ao catálogo

COSMOS 1275 DEB

AtivoPO
NORAD 13809·DEBRIS·🇷🇺 Russia

Lançado Jun 4, 1981 de Plesetsk Cosmodrome

Loading…

Próximas Passagens (próximas 24 horas)

TLE

AtualizadoSource: Space-Track

Época: Sep 14, 2026, 04:38 UTC

1 13809U 81053HD  26257.19372907  .00155641  00000-0  28081-2 0  9991
2 13809  82.7817 254.9468 0011822 154.2298 205.9545 15.49111507289518

Acompanhe COSMOS 1275 DEB em tempo real com AllMySat

Download on the App Store